Time,TemperatureF,DewpointF,PressureIn,WindDirection,WindDirectionDegrees,WindSpeedMPH,WindSpeedGustMPH,Humidity,HourlyPrecipIn,Conditions,Clouds,dailyrainin,SoftwareType,DateUTC
2013-03-25 00:00:00,28.5,22.5,29.86,North,355,6.0,18.0,78,0.00,,,0.00,Wunderground v.1.15,2013-03-25 05:00:00,
2013-03-25 00:05:00,28.5,22.5,29.85,NE,41,6.0,18.0,78,0.00,,,0.00,Wunderground v.1.15,2013-03-25 05:05:00,
2013-03-25 00:10:00,28.4,22.4,29.85,ENE,63,5.0,5.0,78,0.00,,,0.00,Wunderground v.1.15,2013-03-25 05:10:00,
2013-03-25 00:15:00,28.3,22.6,29.86,NE,51,4.0,5.0,79,0.00,,,0.00,Wunderground v.1.15,2013-03-25 05:15:00,
2013-03-25 00:20:00,28.3,22.6,29.85,NE,46,4.0,6.0,79,0.00,,,0.00,Wunderground v.1.15,2013-03-25 05:20:00,
2013-03-25 00:25:00,28.3,22.6,29.85,NE,40,5.0,6.0,79,0.00,,,0.00,Wunderground v.1.15,2013-03-25 05:25:00,
2013-03-25 00:30:00,28.2,22.2,29.85,NE,37,6.0,6.0,78,0.00,,,0.00,Wunderground v.1.15,2013-03-25 05:30:00,
2013-03-25 00:35:00,28.2,22.2,29.85,NE,40,7.0,9.0,78,0.00,,,0.00,Wunderground v.1.15,2013-03-25 05:35:00,
2013-03-25 00:40:00,28.2,22.2,29.85,NE,39,6.0,10.0,78,0.00,,,0.00,Wunderground v.1.15,2013-03-25 05:40:00,
2013-03-25 00:45:00,28.1,22.1,29.85,NE,44,5.0,10.0,78,0.00,,,0.00,Wunderground v.1.15,2013-03-25 05:45:00,
2013-03-25 00:50:00,28.1,22.1,29.86,NE,38,5.0,5.0,78,0.00,,,0.00,Wunderground v.1.15,2013-03-25 05:50:00,
2013-03-25 00:55:00,28.0,22.0,29.86,North,11,5.0,6.0,78,0.00,,,0.00,Wunderground v.1.15,2013-03-25 05:55:00,
2013-03-25 01:00:00,27.9,21.6,29.86,NNE,15,5.0,7.0,77,0.00,,,0.00,Wunderground v.1.15,2013-03-25 06:00:00,
2013-03-25 01:05:00,27.9,21.6,29.86,NE,38,6.0,7.0,77,0.00,,,0.00,Wunderground v.1.15,2013-03-25 06:05:00,
2013-03-25 01:15:00,27.8,21.5,29.86,NNE,31,6.0,7.0,77,0.00,,,0.00,Wunderground v.1.15,2013-03-25 06:15:00,
2013-03-25 01:20:00,27.7,21.4,29.86,NE,44,4.0,4.0,77,0.00,,,0.00,Wunderground v.1.15,2013-03-25 06:20:00,
2013-03-25 01:25:00,27.6,21.3,29.86,NNE,28,4.0,4.0,77,0.00,,,0.00,Wunderground v.1.15,2013-03-25 06:25:00,
2013-03-25 01:29:00,27.5,21.2,29.86,North,360,3.0,3.0,77,0.00,,,0.00,Wunderground v.1.15,2013-03-25 06:29:00,
2013-03-25 01:35:00,27.4,21.1,29.86,NE,35,3.0,3.0,77,0.00,,,0.00,Wunderground v.1.15,2013-03-25 06:35:00,
2013-03-25 01:45:00,27.2,20.9,29.86,NNE,29,5.0,8.0,77,0.00,,,0.00,Wunderground v.1.15,2013-03-25 06:45:00,
2013-03-25 01:50:00,27.1,20.8,29.86,NE,38,6.0,6.0,77,0.00,,,0.00,Wunderground v.1.15,2013-03-25 06:50:00,
2013-03-25 01:55:00,27.0,20.7,29.86,NNW,342,4.0,6.0,77,0.00,,,0.00,Wunderground v.1.15,2013-03-25 06:55:00,
2013-03-25 02:00:00,26.7,20.5,29.86,NE,42,4.0,4.0,77,0.00,,,0.00,Wunderground v.1.15,2013-03-25 07:00:00,
2013-03-25 02:05:00,26.5,20.3,29.86,NE,45,4.0,8.0,77,0.00,,,0.00,Wunderground v.1.15,2013-03-25 07:05:00,
2013-03-25 02:10:00,26.3,20.1,29.86,NNE,29,4.0,5.0,77,0.00,,,0.00,Wunderground v.1.15,2013-03-25 07:10:00,
2013-03-25 02:15:00,26.2,19.7,29.86,NE,41,5.0,6.0,76,0.00,,,0.00,Wunderground v.1.15,2013-03-25 07:15:00,
2013-03-25 02:20:00,26.2,20.0,29.86,NE,50,4.0,7.0,77,0.00,,,0.00,Wunderground v.1.15,2013-03-25 07:20:00,
2013-03-25 02:25:00,26.0,19.8,29.86,NNE,15,4.0,7.0,77,0.00,,,0.00,Wunderground v.1.15,2013-03-25 07:25:00,
2013-03-25 02:30:00,25.8,19.6,29.86,North,355,4.0,5.0,77,0.00,,,0.00,Wunderground v.1.15,2013-03-25 07:30:00,
2013-03-25 02:35:00,25.7,19.5,29.86,NNE,15,4.0,5.0,77,0.00,,,0.00,Wunderground v.1.15,2013-03-25 07:35:00,
2013-03-25 02:40:00,25.6,19.4,29.86,NNE,25,3.0,4.0,77,0.00,,,0.00,Wunderground v.1.15,2013-03-25 07:40:00,
2013-03-25 02:45:00,25.4,19.2,29.86,NE,42,3.0,6.0,77,0.00,,,0.00,Wunderground v.1.15,2013-03-25 07:45:00,
2013-03-25 02:50:00,25.4,19.2,29.86,North,5,4.0,6.0,77,0.00,,,0.00,Wunderground v.1.15,2013-03-25 07:50:00,
2013-03-25 02:55:00,25.4,19.2,29.86,North,360,4.0,6.0,77,0.00,,,0.00,Wunderground v.1.15,2013-03-25 07:55:00,
2013-03-25 03:00:00,25.3,19.1,29.86,NNE,22,3.0,6.0,77,0.00,,,0.00,Wunderground v.1.15,2013-03-25 08:00:00,
2013-03-25 04:30:00,25.5,19.6,29.86,NNE,17,3.0,3.0,78,0.00,,,0.00,Wunderground v.1.15,2013-03-25 09:30:00,
2013-03-25 04:40:00,25.5,19.6,29.86,NNE,17,4.0,4.0,78,0.00,,,0.00,Wunderground v.1.15,2013-03-25 09:40:00,
2013-03-25 04:45:00,25.6,20.0,29.86,NNE,21,5.0,5.0,79,0.00,,,0.00,Wunderground v.1.15,2013-03-25 09:45:00,
2013-03-25 04:50:00,25.6,20.0,29.86,NNW,347,6.0,6.0,79,0.00,,,0.00,Wunderground v.1.15,2013-03-25 09:50:00,
2013-03-25 04:55:00,25.6,20.0,29.86,North,10,4.0,6.0,79,0.00,,,0.00,Wunderground v.1.15,2013-03-25 09:55:00,
2013-03-25 05:00:00,25.6,20.0,29.86,North,10,4.0,5.0,79,0.00,,,0.00,Wunderground v.1.15,2013-03-25 10:00:00,
2013-03-25 05:05:00,25.6,20.0,29.86,NNW,344,5.0,5.0,79,0.00,,,0.00,Wunderground v.1.15,2013-03-25 10:05:00,
2013-03-25 05:10:00,25.6,19.7,29.86,North,360,4.0,5.0,78,0.00,,,0.00,Wunderground v.1.15,2013-03-25 10:10:00,
2013-03-25 05:20:00,25.7,20.1,29.86,North,10,4.0,4.0,79,0.00,,,0.00,Wunderground v.1.15,2013-03-25 10:20:00,
2013-03-25 05:25:00,25.7,20.1,29.86,NNE,27,4.0,4.0,79,0.00,,,0.00,Wunderground v.1.15,2013-03-25 10:25:00,
2013-03-25 05:30:00,25.6,20.0,29.87,North,360,4.0,7.0,79,0.00,,,0.00,Wunderground v.1.15,2013-03-25 10:30:00,
2013-03-25 05:40:00,25.6,20.0,29.87,NNE,19,5.0,5.0,79,0.00,,,0.00,Wunderground v.1.15,2013-03-25 10:40:00,
2013-03-25 05:50:00,25.6,20.0,29.87,NNE,13,4.0,7.0,79,0.00,,,0.00,Wunderground v.1.15,2013-03-25 10:50:00,
2013-03-25 05:55:00,25.6,20.0,29.87,NNE,14,5.0,7.0,79,0.00,,,0.00,Wunderground v.1.15,2013-03-25 10:55:00,
2013-03-25 06:00:00,25.5,20.2,29.88,NNW,343,5.0,8.0,80,0.00,,,0.00,Wunderground v.1.15,2013-03-25 11:00:00,
2013-03-25 06:05:00,25.4,20.1,29.88,NNE,21,5.0,8.0,80,0.00,,,0.00,Wunderground v.1.15,2013-03-25 11:05:00,
2013-03-25 06:10:00,25.4,20.1,29.88,NNW,342,5.0,7.0,80,0.00,,,0.00,Wunderground v.1.15,2013-03-25 11:10:00,
2013-03-25 06:15:00,25.4,20.1,29.88,NNE,13,5.0,7.0,80,0.00,,,0.00,Wunderground v.1.15,2013-03-25 11:15:00,
2013-03-25 06:20:00,25.3,20.0,29.88,North,11,5.0,5.0,80,0.00,,,0.00,Wunderground v.1.15,2013-03-25 11:20:00,
2013-03-25 06:24:00,25.2,20.2,29.88,NE,44,6.0,6.0,81,0.00,,,0.00,Wunderground v.1.15,2013-03-25 11:24:00,
2013-03-25 06:30:00,25.1,20.1,29.88,NNE,32,6.0,6.0,81,0.00,,,0.00,Wunderground v.1.15,2013-03-25 11:30:00,
2013-03-25 06:35:00,25.1,20.1,29.88,NNE,30,6.0,7.0,81,0.00,,,0.00,Wunderground v.1.15,2013-03-25 11:35:00,
2013-03-25 06:40:00,25.0,20.0,29.88,North,350,6.0,10.0,81,0.00,,,0.00,Wunderground v.1.15,2013-03-25 11:40:00,
2013-03-25 06:45:00,24.9,19.9,29.89,NNE,22,5.0,10.0,81,0.00,,,0.00,Wunderground v.1.15,2013-03-25 11:45:00,
2013-03-25 06:50:00,24.9,19.9,29.89,NNW,331,5.0,10.0,81,0.00,,,0.00,Wunderground v.1.15,2013-03-25 11:50:00,
2013-03-25 06:55:00,24.8,19.8,29.89,North,360,5.0,10.0,81,0.00,,,0.00,Wunderground v.1.15,2013-03-25 11:55:00,
2013-03-25 07:00:00,24.7,20.0,29.89,NNW,348,6.0,7.0,82,0.00,,,0.00,Wunderground v.1.15,2013-03-25 12:00:00,
2013-03-25 07:10:00,24.7,20.0,29.90,North,9,5.0,11.0,82,0.00,,,0.00,Wunderground v.1.15,2013-03-25 12:10:00,
2013-03-25 07:15:00,24.7,20.0,29.90,NNE,24,5.0,11.0,82,0.00,,,0.00,Wunderground v.1.15,2013-03-25 12:15:00,
2013-03-25 07:20:00,24.7,20.0,29.90,NNE,23,6.0,6.0,82,0.00,,,0.00,Wunderground v.1.15,2013-03-25 12:20:00,
2013-03-25 07:25:00,24.7,20.0,29.90,NNW,346,6.0,7.0,82,0.00,,,0.00,Wunderground v.1.15,2013-03-25 12:25:00,
2013-03-25 07:30:00,24.7,20.0,29.90,NE,42,6.0,6.0,82,0.00,,,0.00,Wunderground v.1.15,2013-03-25 12:30:00,
2013-03-25 07:40:00,24.8,20.4,29.90,NNE,22,5.0,5.0,83,0.00,,,0.00,Wunderground v.1.15,2013-03-25 12:40:00,
2013-03-25 07:45:00,24.8,20.4,29.90,NNE,30,5.0,5.0,83,0.00,,,0.00,Wunderground v.1.15,2013-03-25 12:45:00,
2013-03-25 07:50:00,24.9,20.5,29.91,NE,49,4.0,4.0,83,0.00,,,0.00,Wunderground v.1.15,2013-03-25 12:50:00,
2013-03-25 07:55:00,25.1,20.7,29.91,North,360,4.0,6.0,83,0.00,,,0.00,Wunderground v.1.15,2013-03-25 12:55:00,
2013-03-25 08:00:00,25.3,20.9,29.91,NNE,29,4.0,4.0,83,0.00,,,0.00,Wunderground v.1.15,2013-03-25 13:00:00,
2013-03-25 08:05:00,25.4,21.0,29.91,North,355,5.0,5.0,83,0.00,,,0.00,Wunderground v.1.15,2013-03-25 13:05:00,
2013-03-25 08:10:00,25.6,21.2,29.91,WNW,298,4.0,7.0,83,0.00,,,0.00,Wunderground v.1.15,2013-03-25 13:10:00,
2013-03-25 08:15:00,25.7,21.3,29.91,North,355,5.0,10.0,83,0.00,,,0.00,Wunderground v.1.15,2013-03-25 13:15:00,
2013-03-25 08:20:00,25.9,21.4,29.92,North,360,7.0,7.0,83,0.00,,,0.00,Wunderground v.1.15,2013-03-25 13:20:00,
2013-03-25 08:25:00,26.1,21.6,29.91,NNW,340,7.0,7.0,83,0.00,,,0.00,Wunderground v.1.15,2013-03-25 13:25:00,
2013-03-25 08:30:00,26.2,21.7,29.92,NE,45,6.0,6.0,83,0.00,,,0.00,Wunderground v.1.15,2013-03-25 13:30:00,
2013-03-25 08:35:00,26.4,21.9,29.92,NE,44,4.0,6.0,83,0.00,,,0.00,Wunderground v.1.15,2013-03-25 13:35:00,
2013-03-25 08:40:00,26.5,21.7,29.92,NE,41,5.0,5.0,82,0.00,,,0.00,Wunderground v.1.15,2013-03-25 13:40:00,
2013-03-25 08:45:00,26.6,21.8,29.92,NNW,340,7.0,8.0,82,0.00,,,0.00,Wunderground v.1.15,2013-03-25 13:45:00,
2013-03-25 08:50:00,26.7,21.9,29.92,NNE,17,7.0,7.0,82,0.00,,,0.00,Wunderground v.1.15,2013-03-25 13:50:00,
2013-03-25 08:55:00,26.9,22.1,29.92,NE,40,6.0,7.0,82,0.00,,,0.00,Wunderground v.1.15,2013-03-25 13:55:00,
2013-03-25 09:00:00,27.1,22.3,29.92,North,355,5.0,5.0,82,0.00,,,0.00,Wunderground v.1.15,2013-03-25 14:00:00,
2013-03-25 09:05:00,27.3,22.5,29.92,NW,319,4.0,7.0,82,0.00,,,0.00,Wunderground v.1.15,2013-03-25 14:05:00,
2013-03-25 09:10:00,27.5,22.7,29.93,North,355,4.0,5.0,82,0.00,,,0.00,Wunderground v.1.15,2013-03-25 14:10:00,
2013-03-25 09:15:00,27.7,22.9,29.93,NNW,347,5.0,5.0,82,0.00,,,0.00,Wunderground v.1.15,2013-03-25 14:15:00,
2013-03-25 09:20:00,27.8,22.7,29.93,North,9,6.0,6.0,81,0.00,,,0.00,Wunderground v.1.15,2013-03-25 14:20:00,
2013-03-25 09:25:00,27.8,23.0,29.94,NNW,343,6.0,9.0,82,0.00,,,0.00,Wunderground v.1.15,2013-03-25 14:25:00,
2013-03-25 09:30:00,27.8,23.0,29.94,NNE,16,6.0,6.0,82,0.00,,,0.00,Wunderground v.1.15,2013-03-25 14:30:00,
2013-03-25 09:35:00,28.0,23.2,29.94,NE,37,5.0,6.0,82,0.00,,,0.00,Wunderground v.1.15,2013-03-25 14:35:00,
2013-03-25 09:40:00,28.1,23.3,29.94,NNE,24,4.0,4.0,82,0.00,,,0.00,Wunderground v.1.15,2013-03-25 14:40:00,
2013-03-25 09:45:00,28.3,23.5,29.94,NNW,348,5.0,5.0,82,0.00,,,0.00,Wunderground v.1.15,2013-03-25 14:45:00,
2013-03-25 09:50:00,28.6,23.8,29.94,NNE,12,4.0,6.0,82,0.00,,,0.00,Wunderground v.1.15,2013-03-25 14:50:00,
2013-03-25 09:55:00,28.8,23.7,29.94,NE,42,4.0,7.0,81,0.00,,,0.00,Wunderground v.1.15,2013-03-25 14:55:00,
2013-03-25 10:00:00,28.8,23.7,29.95,NE,46,6.0,6.0,81,0.00,,,0.00,Wunderground v.1.15,2013-03-25 15:00:00,
2013-03-25 10:05:00,29.0,23.9,29.95,North,355,5.0,7.0,81,0.00,,,0.00,Wunderground v.1.15,2013-03-25 15:05:00,
2013-03-25 10:10:00,29.1,24.0,29.95,NE,38,6.0,6.0,81,0.00,,,0.00,Wunderground v.1.15,2013-03-25 15:10:00,
2013-03-25 10:15:00,29.4,24.3,29.96,NNW,344,6.0,10.0,81,0.00,,,0.00,Wunderground v.1.15,2013-03-25 15:15:00,
2013-03-25 10:20:00,29.7,24.6,29.96,NNE,26,6.0,6.0,81,0.00,,,0.00,Wunderground v.1.15,2013-03-25 15:20:00,
2013-03-25 10:25:00,30.0,24.9,29.96,North,360,6.0,6.0,81,0.00,,,0.00,Wunderground v.1.15,2013-03-25 15:25:00,
2013-03-25 10:30:00,30.6,25.5,29.96,NW,322,6.0,7.0,81,0.00,,,0.00,Wunderground v.1.15,2013-03-25 15:30:00,
2013-03-25 10:35:00,31.1,25.3,29.96,North,9,6.0,8.0,79,0.00,,,0.00,Wunderground v.1.15,2013-03-25 15:35:00,
2013-03-25 10:40:00,31.1,24.7,29.97,NNE,29,6.0,6.0,77,0.00,,,0.00,Wunderground v.1.15,2013-03-25 15:40:00,
2013-03-25 10:50:00,31.0,24.9,29.97,NE,40,6.0,6.0,78,0.00,,,0.00,Wunderground v.1.15,2013-03-25 15:50:00,
2013-03-25 10:55:00,31.2,25.1,29.97,NNE,27,6.0,6.0,78,0.00,,,0.00,Wunderground v.1.15,2013-03-25 15:55:00,
2013-03-25 11:00:00,32.0,25.9,29.97,NE,40,5.0,6.0,78,0.00,,,0.00,Wunderground v.1.15,2013-03-25 16:00:00,
2013-03-25 11:05:00,33.0,25.9,29.97,NE,41,4.0,8.0,75,0.00,,,0.00,Wunderground v.1.15,2013-03-25 16:05:00,
2013-03-25 11:10:00,33.8,26.1,29.98,North,355,6.0,7.0,73,0.00,,,0.00,Wunderground v.1.15,2013-03-25 16:10:00,
2013-03-25 11:15:00,34.4,26.3,29.97,NE,43,7.0,7.0,72,0.00,,,0.00,Wunderground v.1.15,2013-03-25 16:15:00,
2013-03-25 11:20:00,34.9,26.4,29.98,NNE,28,7.0,7.0,71,0.00,,,0.00,Wunderground v.1.15,2013-03-25 16:20:00,
2013-03-25 11:25:00,35.4,26.2,29.98,ENE,74,7.0,7.0,69,0.00,,,0.00,Wunderground v.1.15,2013-03-25 16:25:00,
2013-03-25 11:30:00,35.7,26.5,29.98,North,360,6.0,6.0,69,0.00,,,0.00,Wunderground v.1.15,2013-03-25 16:30:00,
2013-03-25 11:40:00,36.0,26.5,29.98,NE,45,5.0,5.0,68,0.00,,,0.00,Wunderground v.1.15,2013-03-25 16:40:00,
2013-03-25 11:45:00,36.1,26.2,29.98,North,5,6.0,6.0,67,0.00,,,0.00,Wunderground v.1.15,2013-03-25 16:45:00,
2013-03-25 11:50:00,35.4,25.2,29.98,NE,50,8.0,8.0,66,0.00,,,0.00,Wunderground v.1.15,2013-03-25 16:50:00,
2013-03-25 11:55:00,35.1,25.6,29.98,NE,49,8.0,8.0,68,0.00,,,0.00,Wunderground v.1.15,2013-03-25 16:55:00,
2013-03-25 12:00:00,35.3,25.4,29.98,NE,46,7.0,7.0,67,0.00,,,0.00,Wunderground v.1.15,2013-03-25 17:00:00,
2013-03-25 12:05:00,35.8,26.3,29.98,North,5,6.0,7.0,68,0.00,,,0.00,Wunderground v.1.15,2013-03-25 17:05:00,
2013-03-25 12:10:00,36.0,25.7,29.98,NNE,31,6.0,7.0,66,0.00,,,0.00,Wunderground v.1.15,2013-03-25 17:10:00,
2013-03-25 12:15:00,36.0,25.7,29.98,NE,47,6.0,7.0,66,0.00,,,0.00,Wunderground v.1.15,2013-03-25 17:15:00,
2013-03-25 12:20:00,35.6,25.0,29.98,NNW,344,6.0,8.0,65,0.00,,,0.00,Wunderground v.1.15,2013-03-25 17:20:00,
2013-03-25 12:25:00,35.3,25.4,29.98,NE,42,6.0,8.0,67,0.00,,,0.00,Wunderground v.1.15,2013-03-25 17:25:00,
2013-03-25 12:30:00,35.1,25.2,29.99,NE,45,5.0,5.0,67,0.00,,,0.00,Wunderground v.1.15,2013-03-25 17:30:00,
2013-03-25 12:35:00,34.7,25.2,29.99,NE,44,5.0,5.0,68,0.00,,,0.00,Wunderground v.1.15,2013-03-25 17:35:00,
2013-03-25 12:40:00,34.4,24.6,29.99,NNE,26,5.0,6.0,67,0.00,,,0.00,Wunderground v.1.15,2013-03-25 17:40:00,
2013-03-25 12:45:00,34.1,24.6,29.98,NE,42,6.0,6.0,68,0.00,,,0.00,Wunderground v.1.15,2013-03-25 17:45:00,
2013-03-25 12:50:00,34.0,24.5,29.98,NNE,16,5.0,5.0,68,0.00,,,0.00,Wunderground v.1.15,2013-03-25 17:50:00,
2013-03-25 12:55:00,33.9,24.4,29.99,NNE,24,5.0,5.0,68,0.00,,,0.00,Wunderground v.1.15,2013-03-25 17:55:00,
2013-03-25 13:00:00,33.9,24.8,29.98,NNE,32,4.0,5.0,69,0.00,,,0.00,Wunderground v.1.15,2013-03-25 18:00:00,
2013-03-25 13:05:00,34.0,24.5,29.99,NE,36,3.0,5.0,68,0.00,,,0.00,Wunderground v.1.15,2013-03-25 18:05:00,
2013-03-25 13:10:00,33.9,24.4,29.99,NE,49,3.0,3.0,68,0.00,,,0.00,Wunderground v.1.15,2013-03-25 18:10:00,
2013-03-25 13:15:00,33.9,24.4,29.99,NNE,22,3.0,4.0,68,0.00,,,0.00,Wunderground v.1.15,2013-03-25 18:15:00,
2013-03-25 13:20:00,33.8,24.7,29.99,NE,34,3.0,4.0,69,0.00,,,0.00,Wunderground v.1.15,2013-03-25 18:20:00,
2013-03-25 13:29:00,33.7,24.6,29.99,NE,44,4.0,4.0,69,0.00,,,0.00,Wunderground v.1.15,2013-03-25 18:29:00,
2013-03-25 13:35:00,33.7,24.6,29.99,NNE,15,4.0,7.0,69,0.00,,,0.00,Wunderground v.1.15,2013-03-25 18:35:00,
2013-03-25 13:40:00,33.6,24.5,29.99,North,355,4.0,6.0,69,0.00,,,0.00,Wunderground v.1.15,2013-03-25 18:40:00,
2013-03-25 13:45:00,33.6,24.5,29.99,NE,40,4.0,6.0,69,0.00,,,0.00,Wunderground v.1.15,2013-03-25 18:45:00,
2013-03-25 13:50:00,33.5,24.1,29.99,NE,43,4.0,4.0,68,0.00,,,0.00,Wunderground v.1.15,2013-03-25 18:50:00,
2013-03-25 13:55:00,33.5,24.4,29.99,NNW,348,5.0,5.0,69,0.00,,,0.00,Wunderground v.1.15,2013-03-25 18:55:00,
2013-03-25 14:00:00,33.5,24.1,29.99,North,350,6.0,6.0,68,0.00,,,0.00,Wunderground v.1.15,2013-03-25 19:00:00,
2013-03-25 14:05:00,33.5,24.1,29.99,North,355,5.0,6.0,68,0.00,,,0.00,Wunderground v.1.15,2013-03-25 19:05:00,
2013-03-25 14:15:00,33.5,24.1,29.99,NE,55,4.0,5.0,68,0.00,,,0.00,Wunderground v.1.15,2013-03-25 19:15:00,
2013-03-25 14:20:00,33.4,24.0,29.99,NE,55,5.0,5.0,68,0.00,,,0.00,Wunderground v.1.15,2013-03-25 19:20:00,
2013-03-25 14:25:00,33.4,24.3,30.00,NNE,21,4.0,7.0,69,0.00,,,0.00,Wunderground v.1.15,2013-03-25 19:25:00,
2013-03-25 14:30:00,33.4,24.3,30.00,NNE,32,4.0,4.0,69,0.00,,,0.00,Wunderground v.1.15,2013-03-25 19:30:00,
2013-03-25 14:35:00,33.5,24.4,30.00,NE,36,4.0,4.0,69,0.00,,,0.00,Wunderground v.1.15,2013-03-25 19:35:00,
2013-03-25 14:40:00,33.6,24.5,30.00,NNE,15,4.0,8.0,69,0.00,,,0.00,Wunderground v.1.15,2013-03-25 19:40:00,
2013-03-25 14:45:00,33.6,24.5,30.00,ENE,69,4.0,8.0,69,0.00,,,0.00,Wunderground v.1.15,2013-03-25 19:45:00,
2013-03-25 14:50:00,33.5,24.4,30.00,NE,40,4.0,4.0,69,0.00,,,0.00,Wunderground v.1.15,2013-03-25 19:50:00,
2013-03-25 14:55:00,33.5,24.1,30.00,NNE,31,3.0,4.0,68,0.00,,,0.00,Wunderground v.1.15,2013-03-25 19:55:00,
2013-03-25 15:00:00,33.6,24.5,30.00,NE,36,3.0,3.0,69,0.00,,,0.00,Wunderground v.1.15,2013-03-25 20:00:00,
2013-03-25 15:05:00,33.7,24.3,30.00,NNE,13,3.0,4.0,68,0.00,,,0.00,Wunderground v.1.15,2013-03-25 20:05:00,
2013-03-25 15:10:00,33.7,24.3,30.00,ENE,65,4.0,4.0,68,0.00,,,0.00,Wunderground v.1.15,2013-03-25 20:10:00,
2013-03-25 15:15:00,33.4,24.3,30.01,North,360,5.0,6.0,69,0.00,,,0.00,Wunderground v.1.15,2013-03-25 20:15:00,
2013-03-25 15:20:00,33.1,24.4,30.01,NNE,17,6.0,6.0,70,0.00,,,0.00,Wunderground v.1.15,2013-03-25 20:20:00,
2013-03-25 15:25:00,32.8,24.4,30.01,NNW,342,7.0,7.0,71,0.00,,,0.00,Wunderground v.1.15,2013-03-25 20:25:00,
2013-03-25 15:30:00,32.6,24.2,30.01,NNE,20,6.0,6.0,71,0.00,,,0.00,Wunderground v.1.15,2013-03-25 20:30:00,
2013-03-25 15:35:00,32.6,24.6,30.01,NNE,27,5.0,6.0,72,0.00,,,0.00,Wunderground v.1.15,2013-03-25 20:35:00,
2013-03-25 15:40:00,32.7,24.3,30.01,NNE,33,4.0,7.0,71,0.00,,,0.00,Wunderground v.1.15,2013-03-25 20:40:00,
2013-03-25 15:45:00,32.9,24.2,30.01,NNW,348,5.0,7.0,70,0.00,,,0.00,Wunderground v.1.15,2013-03-25 20:45:00,
2013-03-25 15:55:00,33.3,24.2,30.01,NNW,338,6.0,7.0,69,0.00,,,0.00,Wunderground v.1.15,2013-03-25 20:55:00,
2013-03-25 16:00:00,33.5,24.4,30.01,North,355,6.0,6.0,69,0.00,,,0.00,Wunderground v.1.15,2013-03-25 21:00:00,
2013-03-25 16:05:00,33.7,24.3,30.01,North,10,5.0,8.0,68,0.00,,,0.00,Wunderground v.1.15,2013-03-25 21:05:00,
2013-03-25 16:10:00,33.8,24.4,30.01,NNW,327,5.0,5.0,68,0.00,,,0.00,Wunderground v.1.15,2013-03-25 21:10:00,
2013-03-25 16:15:00,33.8,24.4,30.01,NNW,347,5.0,5.0,68,0.00,,,0.00,Wunderground v.1.15,2013-03-25 21:15:00,
2013-03-25 16:20:00,33.9,24.4,30.02,North,9,5.0,11.0,68,0.00,,,0.00,Wunderground v.1.15,2013-03-25 21:20:00,
2013-03-25 16:25:00,34.1,24.6,30.02,NNE,13,5.0,11.0,68,0.00,,,0.00,Wunderground v.1.15,2013-03-25 21:25:00,
2013-03-25 16:30:00,34.2,24.0,30.02,NNW,346,5.0,14.0,66,0.00,,,0.00,Wunderground v.1.15,2013-03-25 21:30:00,
2013-03-25 16:35:00,33.9,24.1,30.02,North,355,6.0,14.0,67,0.00,,,0.00,Wunderground v.1.15,2013-03-25 21:35:00,
2013-03-25 16:40:00,33.8,24.0,30.02,NNW,342,6.0,6.0,67,0.00,,,0.00,Wunderground v.1.15,2013-03-25 21:40:00,
2013-03-25 16:45:00,33.8,24.7,30.02,NNW,345,5.0,6.0,69,0.00,,,0.00,Wunderground v.1.15,2013-03-25 21:45:00,
2013-03-25 16:50:00,33.8,24.7,30.03,NNE,24,3.0,4.0,69,0.00,,,0.00,Wunderground v.1.15,2013-03-25 21:50:00,
2013-03-25 16:55:00,33.8,24.7,30.03,NNE,13,4.0,5.0,69,0.00,,,0.00,Wunderground v.1.15,2013-03-25 21:55:00,
2013-03-25 17:00:00,33.7,24.6,30.03,North,360,6.0,6.0,69,0.00,,,0.00,Wunderground v.1.15,2013-03-25 22:00:00,
2013-03-25 17:05:00,33.7,24.3,30.03,NNE,13,5.0,6.0,68,0.00,,,0.00,Wunderground v.1.15,2013-03-25 22:05:00,
2013-03-25 17:10:00,33.7,24.3,30.04,NNW,344,5.0,7.0,68,0.00,,,0.00,Wunderground v.1.15,2013-03-25 22:10:00,
2013-03-25 17:20:00,33.4,24.0,30.04,NNW,335,5.0,5.0,68,0.00,,,0.00,Wunderground v.1.15,2013-03-25 22:20:00,
2013-03-25 17:25:00,33.5,24.4,30.04,NNE,24,3.0,5.0,69,0.00,,,0.00,Wunderground v.1.15,2013-03-25 22:25:00,
2013-03-25 17:30:00,33.5,24.4,30.04,North,355,4.0,5.0,69,0.00,,,0.00,Wunderground v.1.15,2013-03-25 22:30:00,
2013-03-25 17:35:00,33.4,24.3,30.04,NNE,20,4.0,5.0,69,0.00,,,0.00,Wunderground v.1.15,2013-03-25 22:35:00,
2013-03-25 17:40:00,33.3,24.2,30.04,North,5,4.0,4.0,69,0.00,,,0.00,Wunderground v.1.15,2013-03-25 22:40:00,
2013-03-25 17:50:00,33.2,24.1,30.04,North,5,3.0,3.0,69,0.00,,,0.00,Wunderground v.1.15,2013-03-25 22:50:00,
2013-03-25 17:55:00,33.2,24.5,30.05,NNW,342,3.0,3.0,70,0.00,,,0.00,Wunderground v.1.15,2013-03-25 22:55:00,
2013-03-25 18:00:00,33.2,24.5,30.05,NW,325,3.0,4.0,70,0.00,,,0.00,Wunderground v.1.15,2013-03-25 23:00:00,
2013-03-25 18:05:00,33.2,24.8,30.05,NNW,333,3.0,5.0,71,0.00,,,0.00,Wunderground v.1.15,2013-03-25 23:05:00,
2013-03-25 18:10:00,33.2,24.8,30.05,North,350,3.0,3.0,71,0.00,,,0.00,Wunderground v.1.15,2013-03-25 23:10:00,
2013-03-25 18:15:00,33.2,25.1,30.05,NNW,343,3.0,4.0,72,0.00,,,0.00,Wunderground v.1.15,2013-03-25 23:15:00,
2013-03-25 18:20:00,33.2,25.1,30.05,NNW,341,3.0,3.0,72,0.00,,,0.00,Wunderground v.1.15,2013-03-25 23:20:00,
2013-03-25 18:25:00,33.2,25.1,30.06,North,355,3.0,3.0,72,0.00,,,0.00,Wunderground v.1.15,2013-03-25 23:25:00,
2013-03-25 18:30:00,33.2,25.1,30.06,NNW,348,2.0,2.0,72,0.00,,,0.00,Wunderground v.1.15,2013-03-25 23:30:00,
2013-03-25 18:35:00,33.2,25.1,30.06,North,350,2.0,5.0,72,0.00,,,0.00,Wunderground v.1.15,2013-03-25 23:35:00,
2013-03-25 18:40:00,33.1,25.1,30.06,NNW,340,2.0,2.0,72,0.00,,,0.00,Wunderground v.1.15,2013-03-25 23:40:00,
2013-03-25 18:50:00,33.1,25.4,30.07,North,360,2.0,2.0,73,0.00,,,0.00,Wunderground v.1.15,2013-03-25 23:50:00,
2013-03-25 19:00:00,33.0,25.3,30.07,NW,319,1.0,1.0,73,0.00,,,0.00,Wunderground v.1.15,2013-03-26 00:00:00,
2013-03-25 19:10:00,32.9,25.2,30.07,North,355,2.0,2.0,73,0.00,,,0.00,Wunderground v.1.15,2013-03-26 00:10:00,
2013-03-25 19:15:00,32.9,25.5,30.07,North,350,1.0,2.0,74,0.00,,,0.00,Wunderground v.1.15,2013-03-26 00:15:00,
2013-03-25 19:25:00,32.8,25.4,30.07,NW,325,2.0,2.0,74,0.00,,,0.00,Wunderground v.1.15,2013-03-26 00:25:00,
2013-03-25 19:30:00,32.8,25.4,30.08,NNW,333,3.0,3.0,74,0.00,,,0.00,Wunderground v.1.15,2013-03-26 00:30:00,
2013-03-25 19:35:00,32.8,25.4,30.08,NW,315,3.0,5.0,74,0.00,,,0.00,Wunderground v.1.15,2013-03-26 00:35:00,
2013-03-25 19:40:00,32.8,25.4,30.08,NNW,340,2.0,2.0,74,0.00,,,0.00,Wunderground v.1.15,2013-03-26 00:40:00,
2013-03-25 19:45:00,32.7,25.3,30.08,North,355,2.0,2.0,74,0.00,,,0.00,Wunderground v.1.15,2013-03-26 00:45:00,
2013-03-25 19:50:00,32.7,25.3,30.08,NNW,331,1.0,1.0,74,0.00,,,0.00,Wunderground v.1.15,2013-03-26 00:50:00,
2013-03-25 19:55:00,32.7,25.3,30.09,NW,321,1.0,3.0,74,0.00,,,0.00,Wunderground v.1.15,2013-03-26 00:55:00,
2013-03-25 20:00:00,32.6,25.2,30.09,NNW,340,1.0,1.0,74,0.00,,,0.00,Wunderground v.1.15,2013-03-26 01:00:00,
2013-03-25 20:05:00,32.6,25.6,30.09,NNW,340,1.0,1.0,75,0.00,,,0.00,Wunderground v.1.15,2013-03-26 01:05:00,
2013-03-25 20:10:00,32.6,25.2,30.09,NNW,343,1.0,1.0,74,0.00,,,0.00,Wunderground v.1.15,2013-03-26 01:10:00,
2013-03-25 20:15:00,32.5,25.5,30.09,NNW,345,1.0,1.0,75,0.00,,,0.00,Wunderground v.1.15,2013-03-26 01:15:00,
2013-03-25 20:20:00,32.5,25.5,30.09,NNW,347,1.0,2.0,75,0.00,,,0.00,Wunderground v.1.15,2013-03-26 01:20:00,
2013-03-25 20:25:00,32.5,25.5,30.09,WNW,298,2.0,5.0,75,0.00,,,0.00,Wunderground v.1.15,2013-03-26 01:25:00,
2013-03-25 20:30:00,32.5,25.5,30.09,NNW,336,2.0,2.0,75,0.00,,,0.00,Wunderground v.1.15,2013-03-26 01:30:00,
2013-03-25 20:35:00,32.5,25.5,30.09,NNW,346,2.0,2.0,75,0.00,,,0.00,Wunderground v.1.15,2013-03-26 01:35:00,
2013-03-25 20:40:00,32.5,25.5,30.09,North,350,2.0,4.0,75,0.00,,,0.00,Wunderground v.1.15,2013-03-26 01:40:00,
2013-03-25 20:45:00,32.5,25.5,30.09,North,360,2.0,4.0,75,0.00,,,0.00,Wunderground v.1.15,2013-03-26 01:45:00,
2013-03-25 20:50:00,32.5,25.5,30.09,North,360,2.0,3.0,75,0.00,,,0.00,Wunderground v.1.15,2013-03-26 01:50:00,
2013-03-25 20:55:00,32.5,25.5,30.09,North,5,3.0,3.0,75,0.00,,,0.00,Wunderground v.1.15,2013-03-26 01:55:00,
2013-03-25 21:00:00,32.5,25.5,30.10,NNW,347,3.0,3.0,75,0.00,,,0.00,Wunderground v.1.15,2013-03-26 02:00:00,
2013-03-25 21:05:00,32.5,25.5,30.10,NNW,327,3.0,3.0,75,0.00,,,0.00,Wunderground v.1.15,2013-03-26 02:05:00,
2013-03-25 21:10:00,32.5,25.5,30.09,NNE,26,3.0,3.0,75,0.00,,,0.00,Wunderground v.1.15,2013-03-26 02:10:00,
2013-03-25 21:15:00,32.6,25.2,30.10,North,9,4.0,4.0,74,0.00,,,0.00,Wunderground v.1.15,2013-03-26 02:15:00,
2013-03-25 21:20:00,32.6,25.2,30.10,NNW,347,4.0,4.0,74,0.00,,,0.00,Wunderground v.1.15,2013-03-26 02:20:00,
2013-03-25 21:25:00,32.6,25.6,30.10,NNW,336,4.0,4.0,75,0.00,,,0.00,Wunderground v.1.15,2013-03-26 02:25:00,
2013-03-25 21:30:00,32.5,25.1,30.10,NNW,333,3.0,6.0,74,0.00,,,0.00,Wunderground v.1.15,2013-03-26 02:30:00,
2013-03-25 21:35:00,32.5,25.1,30.10,WNW,295,3.0,6.0,74,0.00,,,0.00,Wunderground v.1.15,2013-03-26 02:35:00,
2013-03-25 21:40:00,32.5,25.1,30.10,NW,306,4.0,4.0,74,0.00,,,0.00,Wunderground v.1.15,2013-03-26 02:40:00,
2013-03-25 21:45:00,32.5,25.1,30.10,WNW,295,3.0,9.0,74,0.00,,,0.00,Wunderground v.1.15,2013-03-26 02:45:00,
2013-03-25 21:50:00,32.5,25.1,30.10,NW,322,3.0,3.0,74,0.00,,,0.00,Wunderground v.1.15,2013-03-26 02:50:00,
2013-03-25 21:55:00,32.5,25.5,30.10,North,355,3.0,3.0,75,0.00,,,0.00,Wunderground v.1.15,2013-03-26 02:55:00,
2013-03-25 22:00:00,32.4,25.0,30.10,WNW,302,2.0,2.0,74,0.00,,,0.00,Wunderground v.1.15,2013-03-26 03:00:00,
2013-03-25 22:05:00,32.4,25.4,30.10,WNW,299,2.0,5.0,75,0.00,,,0.00,Wunderground v.1.15,2013-03-26 03:05:00,
2013-03-25 22:10:00,32.4,25.0,30.11,North,349,3.0,5.0,74,0.00,,,0.00,Wunderground v.1.15,2013-03-26 03:10:00,
2013-03-25 22:20:00,32.4,25.0,30.10,NW,321,3.0,7.0,74,0.00,,,0.00,Wunderground v.1.15,2013-03-26 03:20:00,
2013-03-25 22:25:00,32.3,24.9,30.11,NNE,28,3.0,7.0,74,0.00,,,0.00,Wunderground v.1.15,2013-03-26 03:25:00,
2013-03-25 22:30:00,32.3,24.9,30.11,NNW,338,4.0,4.0,74,0.00,,,0.00,Wunderground v.1.15,2013-03-26 03:30:00,
2013-03-25 22:35:00,32.4,25.0,30.11,NW,318,4.0,4.0,74,0.00,,,0.00,Wunderground v.1.15,2013-03-26 03:35:00,
2013-03-25 22:40:00,32.4,25.0,30.11,North,355,5.0,5.0,74,0.00,,,0.00,Wunderground v.1.15,2013-03-26 03:40:00,
2013-03-25 22:45:00,32.4,24.7,30.11,North,9,4.0,6.0,73,0.00,,,0.00,Wunderground v.1.15,2013-03-26 03:45:00,
2013-03-25 22:50:00,32.4,25.0,30.11,NNW,347,4.0,6.0,74,0.00,,,0.00,Wunderground v.1.15,2013-03-26 03:50:00,
2013-03-25 23:00:00,32.4,24.7,30.11,NNW,343,4.0,4.0,73,0.00,,,0.00,Wunderground v.1.15,2013-03-26 04:00:00,
2013-03-25 23:05:00,32.3,24.6,30.11,NNW,348,3.0,4.0,73,0.00,,,0.00,Wunderground v.1.15,2013-03-26 04:05:00,
2013-03-25 23:10:00,32.3,24.6,30.11,NNW,344,3.0,4.0,73,0.00,,,0.00,Wunderground v.1.15,2013-03-26 04:10:00,
2013-03-25 23:15:00,32.3,24.3,30.11,NNW,338,4.0,4.0,72,0.00,,,0.00,Wunderground v.1.15,2013-03-26 04:15:00,
2013-03-25 23:20:00,32.3,24.3,30.11,North,355,4.0,4.0,72,0.00,,,0.00,Wunderground v.1.15,2013-03-26 04:20:00,
2013-03-25 23:25:00,32.3,24.3,30.11,North,355,5.0,5.0,72,0.00,,,0.00,Wunderground v.1.15,2013-03-26 04:25:00,
2013-03-25 23:30:00,32.3,24.3,30.12,North,5,4.0,4.0,72,0.00,,,0.00,Wunderground v.1.15,2013-03-26 04:30:00,
2013-03-25 23:35:00,32.3,24.3,30.11,North,360,3.0,5.0,72,0.00,,,0.00,Wunderground v.1.15,2013-03-26 04:35:00,
2013-03-25 23:40:00,32.3,23.9,30.12,NNW,346,4.0,4.0,71,0.00,,,0.00,Wunderground v.1.15,2013-03-26 04:40:00,
2013-03-25 23:45:00,32.3,24.3,30.12,NNW,342,4.0,4.0,72,0.00,,,0.00,Wunderground v.1.15,2013-03-26 04:45:00,
2013-03-25 23:50:00,32.3,23.9,30.12,NW,325,4.0,4.0,71,0.00,,,0.00,Wunderground v.1.15,2013-03-26 04:50:00,
2013-03-25 23:55:00,32.3,23.9,30.12,North,5,4.0,4.0,71,0.00,,,0.00,Wunderground v.1.15,2013-03-26 04:55:00,